Location: Devore Heights
(34.2372°N, 117.4156°W)
Time: 18:41:06
(UTC+00:00)

deb Explorer IX - Pass Details

Date: 15 September 2024
Orbit: 502 x 816 km, 38.7° (Epoch: 15 October)

Event Time Altitude Azimuth Distance (km) Brightness Sun altitude
Rises 09:08:43 0° 288° (WNW) 3,291 - -48.1°
Reaches altitude 10° 09:11:25 10° 281° (W) 2,309 - -47.8°
Maximum altitude 09:16:30 41° 212° (SSW) 1,028 - -47.2°
Drops below altitude 10° 09:21:05 10° 142° (SE) 2,081 - -46.6°
Sets 09:23:25 0° 135° (SE) 2,930 - -46.3°
